ISS (25544 NORAD) Tracking and Keplerian Element Data

This shows tracking and keplerian element data for the satellite.

Feedback or suggestion? Click here.




ElementValue
Catalog25544
NameISS
Epoch Orbit179
Epoch Day81.5741073
Epoch Year2019
RAAN71.8068
Inclination51.6375
Eccentricity0.0003587
Argument of Perigee128.1084
Mean Anonmoly232.0392
Mean Motion15.52839259
Decay Rate0.00016717
L11 25544U 98067A 19081.57410730 .00016717 00000-0 10270-3 0 9025
L22 25544 51.6375 71.8068 0003587 128.1084 232.0392 15.52839259 1793

Live tracking and technical data element details for ISS (NORAD 25544). ISS can be tracked NOW for your location showing map with azimuth and elevation plus other details from your city location.

Track the satellite on the map from your city or location and see movement details for azimuth, elevation, latitude, longitude, range, height, and movement on the map or in text.







IsCatalogInMostPopularTable: catalog: 25544, numindb: 14640
Update: records affected: 1



GetName: 25544 ISS

Hit Count: updated at: Sat, 23 Mar 2019 02:26:34 GMT